EHI
0 0 0 0 0 0 0 0 0 0 0 1 3 5 5 6 9 11 11 11 8 6 5 5 4 4 4 3 3 3 3 3 5 7 7 5 3 2 2 2 1 1 0 0
0 0 0 0 0 0 0 0 0 0 0 0 1 3 3 4 6 6 7 6 5 3 3 3 3 2 1 1 2 2 1 2 3 4 4 3 1 1 1 1 1 0 0 0
0 0 0 0 0 0 0 0 0 0 0 0 0 1 1 1 2 2 1 1 1 1 1 1 1 0 0 0 0 0 0 1 1 1 1 1 0 0 0 0 0 0 0 0
0 0 0 0 0 0 0 0 0 0 0 0 0 0 0 0 0 0 0 0 0 1 1 0 0 0 0 0 0 0 0 0 0 0 0 0 0 0 0 0 0 0 0 0
0 0 0 0 0 0 0 0 0 0 0 0 0 0 0 0 0 0 0 0 0 0 0 0 0 0 0 0 0 0 0 0 0 0 0 0 0 0 0 0 0 0 0 0
0 0 0 0 0 0 0 0 0 0 0 0 0 0 0 0 0 0 0 0 0 0 0 0 0 0 0 0 0 0 0 0 0 0 0 0 0 0 0 0 0 0 0 0
0 0 0 0 0 0 0 0 0 0 0 0 0 0 0 0 0 0 0 0 0 0 0 0 0 0 0 0 0 0 0 0 0 0 0 0 0 0 0 0 0 0 0 0
0 0 0 0 0 0 0 0 0 0 0 0 0 0 0 0 0 0 0 0 0 0 0 0 0 0 0 0 0 0 0 0 0 0 0 0 0 0 0 0 0 0 0 0
0 0 0 0 0 0 0 0 0 0 0 0 0 0 0 0 0 0 0 0 0 0 0 0 0 0 0 0 0 0 0 0 0 0 0 0 0 0 0 0 0 0 0 0
0 0 0 0 0 0 0 0 0 0 0 0 0 0 0 0 0 0 0 0 0 0 0 0 0 0 0 0 0 0 0 0 0 0 0 0 0 0 0 0 0 0 0 0
0 0 0 0 0 0 0 0 0 0 0 0 0 0 0 0 0 0 0 0 0 0 0 0 0 0 0 0 0 0 0 0 0 0 0 0 0 0 0 0 0 0 0 0
0 0 0 0 0 0 0 0 0 0 0 0 0 0 0 0 0 0 0 0 0 0 0 0 0 0 0 0 0 0 0 0 0 0 0 0 0 0 0 0 0 0 0 0
0 0 0 0 0 0 0 0 0 0 0 0 0 0 0 0 0 0 0 0 0 0 0 0 0 0 0 0 0 0 0 0 0 0 0 0 0 0 0 0 0 0 0 0
0 0 0 0 0 0 0 0 0 0 0 0 0 0 0 0 0 0 0 0 0 0 0 0 0 0 0 0 0 0 0 0 0 0 0 0 0 0 0 0 0 0 0 0
0 0 0 0 0 0 0 0 0 0 0 0 0 0 0 0 0 0 0 0 0 0 0 0 0 0 0 0 0 0 0 0 0 0 0 0 0 0 0 0 0 0 0 0
0 0 0 0 0 0 0 0 0 0 0 0 0 0 0 0 0 0 0 0 0 0 0 0 0 0 0 0 0 0 0 0 0 0 0 0 0 0 0 0 0 0 0 0
0 0 0 0 0 0 0 0 0 0 0 0 0 0 0 0 0 0 0 0 0 0 0 0 0 0 0 0 0 0 0 0 0 0 0 0 0 0 0 0 0 0 0 0
0 0 0 0 0 0 0 0 0 0 0 0 0 0 0 0 0 0 0 0 0 0 0 0 0 0 0 0 0 0 0 0 0 0 0 0 0 0 0 0 0 0 0 0
0 0 0 0 0 0 0 0 0 0 0 0 0 0 0 0 0 0 0 0 0 0 0 0 0 0 0 0 0 0 0 0 0 0 0 0 0 0 0 0 0 0 0 0
0 0 0 0 0 0 0 0 0 0 0 0 0 0 0 0 0 0 0 0 0 0 0 0 0 0 0 0 0 0 0 0 0 0 0 0 0 0 0 0 0 0 0 0
0 0 0 0 0 0 0 0 0 0 0 0 0 0 0 0 0 0 0 0 0 0 0 0 0 0 0 0 0 0 0 0 0 0 0 0 0 0 0 0 0 0 0 0
0 0 0 0 0 0 0 0 0 0 0 0 0 0 0 0 0 0 0 0 0 0 0 0 0 0 0 0 0 0 0 0 0 0 0 0 0 0 0 0 0 0 0 0
0 0 0 0 0 0 0 0 0 0 0 0 0 0 0 0 0 0 0 0 0 0 0 0 0 0 0 0 0 0 0 0 0 0 0 0 0 0 0 0 0 0 0 0
0 0 0 0 0 0 0 0 0 0 0 0 0 0 0 0 0 0 0 0 0 0 0 0 0 0 0 0 0 0 0 0 0 0 0 0 0 0 0 0 0 0 0 0
0 0 0 0 0 0 0 0 0 0 0 0 0 0 0 0 0 0 0 0 0 0 0 0 0 0 0 0 0 0 0 0 0 0 0 0 0 0 0 0 0 0 0 0
0 0 0 0 0 0 0 0 0 0 0 0 0 0 0 0 0 0 0 0 0 0 0 0 0 0 0 0 0 0 0 0 0 0 0 0 0 0 0 0 0 0 0 0
Wind_Speed
3 3 3 7 7 5 2 2 2 1 2 7 9 7 8 9 9 9 9 8 8 7 6 6 6 5 5 5 4 4 3 2 2 1 1 1 1 2 2 2 3 4 4 4
4 3 7 4 3 4 3 1 1 1 4 5 5 7 6 8 8 7 7 7 6 6 6 6 7 7 7 7 5 4 4 3 3 2 1 0 1 2 1 2 2 2 2 2
3 6 4 1 0 2 3 4 3 3 3 4 4 3 3 4 5 7 7 5 5 5 5 5 5 5 5 5 4 3 3 3 3 2 1 1 1 1 2 2 2 3 2 1
3 4 3 2 1 2 2 3 3 4 4 1 1 1 2 1 3 5 5 5 5 5 4 4 5 5 4 3 2 2 3 3 3 3 3 3 2 2 2 2 2 3 3 2
4 3 3 2 2 1 2 3 4 3 4 3 4 3 3 1 1 2 2 2 2 3 3 3 3 2 2 1 1 2 2 3 3 3 3 3 2 1 1 2 3 3 3 3
4 3 2 2 2 1 3 5 6 5 5 3 2 1 3 2 3 2 2 1 1 1 2 2 2 2 2 2 1 1 0 1 1 1 2 2 2 1 1 2 2 2 2 2
7 6 4 1 2 4 5 6 5 6 5 3 2 1 5 2 2 3 3 3 2 2 2 3 3 3 4 4 3 2 2 2 2 1 1 2 2 2 1 1 1 1 2 2
2 6 5 3 1 0 2 6 6 3 4 4 2 2 3 1 1 1 2 2 2 3 3 5 5 5 5 5 5 4 4 4 4 3 3 3 3 2 2 3 3 3 2 3
1 5 4 3 3 2 3 3 4 6 2 1 4 4 3 1 0 1 1 1 3 4 5 6 6 6 6 6 6 6 6 6 6 5 5 5 5 5 5 5 4 3 4 4
3 3 5 5 5 7 5 6 5 4 2 2 4 3 3 3 3 2 2 2 4 4 5 6 6 6 6 6 6 6 6 7 7 6 6 6 6 6 6 5 6 6 6 5
3 1 5 5 6 5 4 4 5 4 3 4 2 4 2 3 3 2 2 2 4 5 6 7 6 5 5 5 6 6 7 7 8 8 7 7 8 7 6 6 7 7 6 6
3 5 2 3 3 2 3 3 3 3 0 2 2 5 3 2 2 1 1 3 4 5 6 6 6 6 6 7 7 7 8 8 9 9 8 9 9 8 7 8 9 8 8 7
4 6 4 7 7 6 5 4 4 5 4 2 1 5 2 4 4 3 3 5 6 7 7 6 6 6 7 8 8 8 8 9 10 9 9 9 9 9 10 10 10 9 9 8
6 5 4 3 4 1 3 4 3 4 3 1 3 5 3 3 3 5 6 7 7 7 7 7 7 8 8 9 9 9 10 10 10 9 9 10 11 11 11 11 10 10 9 9
6 5 2 1 1 2 3 3 4 3 2 3 5 5 5 3 4 6 7 8 8 9 9 9 9 9 9 10 10 9 10 10 10 9 10 11 12 11 11 10 10 10 10 11
5 5 2 3 3 4 3 3 3 2 1 2 3 5 4 4 4 6 8 9 9 10 10 10 11 11 11 11 10 10 10 11 9 10 11 11 11 11 11 11 11 10 10 10
3 5 3 1 1 3 2 2 1 2 3 3 5 6 4 6 7 8 8 9 10 11 11 11 11 11 11 11 11 11 11 10 10 11 12 11 11 11 11 11 10 10 10 10
6 5 4 2 2 3 5 2 2 3 5 4 5 5 6 9 8 8 9 8 10 10 10 11 10 11 11 11 11 11 11 11 11 11 12 11 11 11 11 10 10 10 9 9
4 7 4 3 1 4 2 2 2 3 7 4 5 7 7 7 6 7 7 6 8 10 10 10 11 12 11 12 12 11 12 12 12 12 12 11 10 11 11 11 10 9 8 9
6 5 6 3 1 4 5 2 0 1 6 3 4 7 7 5 5 8 6 7 9 10 9 10 11 12 12 13 11 11 13 12 13 13 12 12 11 11 12 11 11 9 8 9
3 5 4 3 2 6 5 1 2 1 6 3 4 6 5 5 8 9 9 9 9 10 12 12 12 12 13 13 12 12 13 14 14 13 12 12 12 12 12 11 10 9 8 8
4 3 3 3 1 6 2 3 4 7 4 3 4 5 6 7 9 9 9 9 10 11 11 12 11 13 13 12 12 13 14 14 13 13 13 12 12 12 11 9 8 8 8 8
5 7 6 7 7 5 3 5 4 4 3 3 4 5 5 6 7 8 8 9 10 11 11 11 12 14 13 12 12 14 14 13 14 13 13 12 12 10 9 8 8 6 6 6
2 3 3 2 5 4 4 3 2 3 3 3 4 5 4 6 8 9 9 9 10 10 12 11 13 14 15 14 14 13 13 13 13 13 12 10 10 9 8 6 5 5 5 5
4 5 3 4 5 2 4 5 3 2 2 2 3 3 4 5 7 8 8 10 10 11 10 11 12 14 16 15 15 14 13 12 13 12 11 9 8 7 6 5 5 5 5 5
5 8 8 7 7 6 6 4 3 3 3 3 3 4 5 4 7 8 9 9 10 12 12 13 14 15 16 15 15 14 12 12 12 10 9 7 6 6 5 5 4 5 7 7
Wind_Direction
32 58 264 242 208 212 231 258 293 309 103 77 80 71 35 28 43 50 49 50 54 47 33 34 29 27 34 38 39 31 28 11 4 18 38 321 281 281 284 234 237 237 230 221
20 295 254 248 208 191 200 221 206 88 97 104 97 71 46 37 39 40 42 36 36 34 23 22 24 23 28 33 25 21 20 13 1 353 340 312 303 295 321 323 299 273 245 225
221 257 285 303 17 159 196 191 191 161 101 86 110 54 29 32 39 45 43 35 31 36 28 19 24 28 36 35 20 27 31 30 16 6 357 2 4 357 4 350 339 333 327 291
261 274 322 355 332 158 249 242 177 148 128 88 110 169 308 13 21 29 26 23 21 18 24 17 15 21 30 31 24 32 33 32 21 32 50 55 49 30 352 329 329 341 355 339
288 306 332 333 295 204 204 56 78 91 115 71 32 110 278 349 342 335 342 1 7 7 12 4 356 348 346 5 27 38 39 34 25 45 73 81 71 44 328 341 352 354 357 357
272 294 265 273 316 67 113 74 59 53 68 47 336 132 259 230 217 235 266 269 267 295 315 324 317 320 320 321 333 325 42 26 12 63 87 104 106 84 26 352 346 342 337 342
335 333 327 312 356 21 67 75 26 2 10 267 301 214 249 227 196 203 236 256 258 269 281 285 278 275 275 280 280 279 266 260 256 228 192 173 173 182 199 248 279 304 318 312
343 318 323 347 352 289 72 122 147 210 235 283 340 265 267 202 173 191 221 235 243 260 263 263 264 262 264 267 269 270 266 263 262 257 250 239 221 213 222 227 227 236 239 253
214 281 312 359 6 98 98 78 142 131 138 315 298 296 318 89 335 290 280 265 265 268 272 269 271 268 262 264 265 263 265 267 265 257 255 253 245 235 235 238 235 237 239 248
172 272 316 328 31 35 80 126 85 97 132 286 306 301 298 306 281 265 265 276 291 297 288 280 275 273 272 269 273 273 265 263 265 264 259 258 253 248 244 243 245 243 245 244
110 129 327 15 33 351 20 54 84 98 137 155 270 282 321 294 285 256 260 287 298 295 290 288 288 289 288 283 276 272 270 268 267 263 258 257 256 252 248 243 245 244 243 241
103 107 1 314 315 357 70 64 123 124 203 144 189 270 335 4 21 52 340 317 307 297 291 288 287 287 284 280 276 270 267 263 260 257 257 257 258 257 253 249 248 244 242 240
117 88 37 351 346 6 37 33 84 105 101 119 190 275 2 30 29 11 330 308 303 300 296 292 290 284 280 278 276 272 269 265 264 261 258 259 259 256 254 252 249 244 240 241
101 85 132 196 257 312 22 20 61 91 95 250 241 264 304 342 332 316 304 296 296 291 289 287 285 282 280 277 273 272 271 268 268 265 262 261 260 256 253 251 249 246 241 238
85 88 73 30 12 92 71 45 53 79 154 210 262 260 265 266 278 285 287 291 295 291 291 287 283 283 282 282 279 276 275 275 272 269 267 264 262 259 257 254 250 248 245 244
70 106 82 31 37 69 64 33 45 39 320 268 274 272 254 276 285 284 286 289 290 288 287 288 288 287 286 285 284 283 280 278 275 271 269 269 267 263 257 254 252 250 248 247
84 113 106 225 291 4 296 264 274 268 250 234 247 259 290 297 289 280 282 288 288 287 289 291 291 290 289 287 285 283 281 281 278 274 273 271 268 268 264 261 256 249 248 247
121 101 110 115 64 271 255 250 219 244 255 230 241 265 275 267 274 276 275 277 284 289 292 293 292 292 290 287 288 286 287 286 283 279 277 274 270 267 265 262 259 255 249 243
120 125 108 107 189 288 274 232 197 243 277 225 237 270 280 292 315 294 278 276 278 285 288 290 290 292 292 294 294 294 293 290 288 286 283 280 276 274 270 264 260 258 253 248
57 82 104 113 156 257 251 246 216 126 289 241 238 271 285 318 319 286 290 303 298 297 296 296 297 298 298 298 297 296 296 295 293 292 288 284 277 271 268 263 258 253 248 249
40 46 90 137 226 266 250 265 73 208 266 257 246 264 276 259 246 272 299 301 294 294 296 297 300 301 300 300 301 299 298 297 296 295 291 286 280 274 269 263 256 249 246 246
164 145 166 144 209 270 222 142 182 223 244 262 264 268 271 269 277 290 297 297 300 301 301 303 304 304 303 302 302 300 298 297 298 297 293 289 284 280 278 264 255 247 242 243
184 186 184 183 211 238 227 208 215 188 225 257 261 276 281 284 289 295 294 296 300 301 303 305 307 307 307 307 305 302 301 302 302 299 296 293 291 284 276 269 263 252 238 237
231 137 137 234 260 239 229 232 231 206 229 259 270 282 286 286 290 296 297 300 304 303 308 309 312 312 313 313 311 304 304 305 304 301 301 298 295 291 283 270 257 248 238 233
217 160 167 243 265 263 256 234 229 235 254 281 295 289 288 290 294 294 300 304 306 308 309 311 314 314 314 315 313 311 310 310 308 305 303 300 295 293 291 279 262 250 238 228
198 175 173 216 215 192 232 227 200 207 243 270 290 300 301 291 289 297 301 301 306 312 315 317 317 316 316 316 315 315 315 315 313 311 309 305 301 297 293 289 286 258 245 244